Total_Precipitation_Accumulation
0.04 0.09 0.22 0.41 0.60 0.83 0.77 0.62 0.49 0.35 0.26 0.20 0.13 0.09 0.06 0.05 0.04 0.04 0.05 0.06 0.05 0.06 0.07 0.06 0.07 0.06 0.06 0.06 0.05 0.05 0.05 0.04 0.03 0.02 0.02 0.01 0.01 0.02 0.02 0.01 0.01 0.01 0.01
0.05 0.11 0.18 0.29 0.36 0.49 0.60 0.61 0.53 0.43 0.34 0.27 0.20 0.16 0.12 0.10 0.10 0.12 0.15 0.13 0.12 0.11 0.09 0.08 0.05 0.05 0.04 0.03 0.03 0.03 0.02 0.01 0.01 0.01 0.01 0.00 0.00 0.00 0.00 0.00 0.00 0.00 0.00
0.05 0.07 0.11 0.19 0.27 0.37 0.53 0.58 0.50 0.41 0.34 0.29 0.25 0.24 0.21 0.18 0.20 0.23 0.24 0.19 0.16 0.12 0.09 0.06 0.03 0.02 0.01 0.01 0.01 0.01 0.01 0.01 0.01 0.01 0.02 0.02 0.01 0.00 0.00 0.00 0.00 0.00 0.00
0.04 0.06 0.08 0.16 0.26 0.39 0.48 0.49 0.42 0.36 0.33 0.31 0.28 0.28 0.27 0.26 0.26 0.20 0.19 0.15 0.09 0.05 0.03 0.02 0.01 0.01 0.00 0.00 0.00 0.01 0.01 0.01 0.01 0.00 0.01 0.01 0.01 0.02 0.01 0.00 0.00 0.00 0.00
0.03 0.06 0.09 0.15 0.25 0.33 0.38 0.39 0.37 0.35 0.31 0.28 0.25 0.24 0.23 0.21 0.15 0.09 0.07 0.04 0.02 0.01 0.00 0.00 0.01 0.01 0.00 0.00 0.00 0.00 0.00 0.00 0.00 0.00 0.01 0.01 0.01 0.02 0.04 0.02 0.01 0.00 0.00
0.03 0.05 0.09 0.13 0.17 0.20 0.24 0.27 0.29 0.30 0.27 0.23 0.21 0.17 0.14 0.11 0.07 0.04 0.03 0.01 0.00 0.00 0.00 0.00 0.00 0.00 0.00 0.00 0.00 0.00 0.01 0.01 0.02 0.02 0.02 0.02 0.03 0.03 0.04 0.05 0.03 0.01 0.00
0.03 0.04 0.07 0.10 0.12 0.13 0.15 0.18 0.18 0.19 0.17 0.14 0.12 0.10 0.08 0.06 0.04 0.02 0.01 0.00 0.00 0.00 0.00 0.00 0.00 0.00 0.00 0.00 0.01 0.01 0.02 0.02 0.03 0.03 0.03 0.04 0.04 0.05 0.07 0.09 0.07 0.04 0.01
0.02 0.04 0.07 0.08 0.08 0.08 0.10 0.12 0.12 0.11 0.11 0.10 0.08 0.06 0.05 0.03 0.02 0.01 0.01 0.01 0.00 0.00 0.00 0.00 0.00 0.00 0.01 0.01 0.02 0.02 0.02 0.03 0.04 0.04 0.06 0.07 0.06 0.07 0.10 0.13 0.16 0.13 0.07
0.04 0.06 0.07 0.07 0.07 0.07 0.08 0.09 0.09 0.09 0.09 0.08 0.05 0.04 0.03 0.02 0.02 0.02 0.01 0.01 0.01 0.01 0.00 0.01 0.01 0.02 0.03 0.03 0.05 0.05 0.05 0.07 0.08 0.08 0.08 0.09 0.07 0.08 0.09 0.11 0.16 0.22 0.19
0.07 0.10 0.11 0.09 0.06 0.06 0.09 0.09 0.08 0.08 0.07 0.05 0.04 0.03 0.03 0.02 0.02 0.01 0.01 0.02 0.02 0.01 0.02 0.02 0.03 0.04 0.04 0.05 0.07 0.08 0.08 0.10 0.10 0.10 0.10 0.10 0.09 0.11 0.12 0.13 0.15 0.22 0.27
0.12 0.16 0.12 0.07 0.05 0.06 0.07 0.08 0.08 0.07 0.06 0.05 0.04 0.04 0.03 0.02 0.01 0.01 0.02 0.02 0.02 0.03 0.04 0.04 0.04 0.04 0.05 0.06 0.08 0.08 0.08 0.09 0.08 0.08 0.09 0.10 0.10 0.12 0.12 0.15 0.19 0.23 0.30
0.12 0.11 0.08 0.06 0.05 0.07 0.08 0.08 0.10 0.09 0.08 0.06 0.05 0.04 0.02 0.02 0.02 0.02 0.02 0.03 0.04 0.04 0.05 0.05 0.06 0.05 0.05 0.06 0.08 0.09 0.08 0.09 0.09 0.09 0.10 0.09 0.09 0.11 0.12 0.15 0.17 0.20 0.25
0.11 0.10 0.10 0.08 0.08 0.10 0.11 0.11 0.12 0.10 0.07 0.05 0.03 0.02 0.02 0.02 0.03 0.03 0.04 0.05 0.05 0.06 0.06 0.07 0.07 0.06 0.06 0.08 0.10 0.09 0.08 0.08 0.08 0.09 0.10 0.10 0.11 0.12 0.14 0.17 0.19 0.21 0.24
0.17 0.14 0.13 0.11 0.11 0.12 0.12 0.11 0.10 0.08 0.06 0.04 0.03 0.03 0.03 0.04 0.05 0.05 0.06 0.06 0.06 0.07 0.06 0.06 0.05 0.07 0.08 0.07 0.05 0.05 0.05 0.05 0.06 0.07 0.10 0.11 0.14 0.17 0.18 0.19 0.20 0.26 0.30
0.19 0.19 0.17 0.15 0.14 0.13 0.12 0.12 0.11 0.08 0.06 0.05 0.04 0.05 0.05 0.06 0.07 0.07 0.08 0.08 0.07 0.06 0.05 0.05 0.06 0.07 0.07 0.03 0.02 0.02 0.02 0.04 0.05 0.07 0.09 0.10 0.13 0.17 0.19 0.20 0.25 0.33 0.38
0.23 0.23 0.21 0.18 0.16 0.16 0.17 0.15 0.12 0.09 0.08 0.08 0.08 0.07 0.06 0.07 0.08 0.08 0.08 0.07 0.07 0.06 0.05 0.04 0.04 0.04 0.03 0.01 0.01 0.00 0.01 0.03 0.07 0.10 0.09 0.06 0.07 0.09 0.13 0.20 0.26 0.32 0.38
0.28 0.26 0.22 0.19 0.19 0.21 0.20 0.18 0.16 0.14 0.12 0.10 0.09 0.08 0.07 0.06 0.06 0.06 0.06 0.06 0.05 0.04 0.03 0.03 0.02 0.03 0.02 0.00 0.00 0.00 0.01 0.05 0.09 0.12 0.09 0.06 0.04 0.07 0.11 0.15 0.19 0.24 0.34
0.21 0.19 0.18 0.21 0.24 0.26 0.26 0.23 0.19 0.14 0.11 0.08 0.07 0.06 0.04 0.04 0.05 0.05 0.04 0.03 0.03 0.03 0.03 0.02 0.02 0.02 0.01 0.00 0.00 0.00 0.01 0.05 0.07 0.08 0.07 0.08 0.08 0.10 0.13 0.14 0.19 0.29 0.36
0.17 0.19 0.23 0.29 0.32 0.31 0.26 0.19 0.13 0.09 0.06 0.05 0.04 0.03 0.02 0.02 0.02 0.02 0.02 0.02 0.03 0.03 0.02 0.02 0.02 0.02 0.02 0.00 0.00 0.00 0.01 0.02 0.03 0.04 0.06 0.08 0.11 0.12 0.18 0.25 0.34 0.50 0.64
0.15 0.23 0.30 0.32 0.30 0.25 0.16 0.11 0.07 0.05 0.04 0.02 0.01 0.01 0.01 0.01 0.01 0.02 0.02 0.03 0.03 0.02 0.01 0.01 0.02 0.02 0.03 0.01 0.00 0.00 0.01 0.02 0.02 0.03 0.05 0.10 0.16 0.17 0.28 0.36 0.49 0.67 0.81
0.22 0.27 0.28 0.25 0.19 0.13 0.09 0.07 0.05 0.03 0.02 0.01 0.00 0.00 0.00 0.00 0.01 0.01 0.02 0.02 0.02 0.02 0.02 0.02 0.02 0.03 0.02 0.02 0.00 0.00 0.01 0.02 0.04 0.07 0.11 0.16 0.24 0.24 0.36 0.52 0.62 0.84 0.93
0.28 0.28 0.24 0.17 0.10 0.06 0.04 0.04 0.03 0.02 0.00 0.00 0.01 0.01 0.00 0.00 0.00 0.01 0.01 0.02 0.02 0.01 0.01 0.01 0.02 0.02 0.03 0.02 0.01 0.00 0.01 0.02 0.05 0.13 0.22 0.26 0.29 0.32 0.49 0.62 0.80 1.04 1.10
0.26 0.20 0.14 0.10 0.05 0.03 0.02 0.02 0.02 0.00 0.00 0.00 0.01 0.00 0.00 0.00 0.00 0.01 0.01 0.01 0.01 0.01 0.01 0.01 0.02 0.02 0.02 0.02 0.01 0.01 0.01 0.03 0.07 0.17 0.33 0.36 0.34 0.49 0.70 0.89 1.03 1.14 1.04
0.15 0.09 0.05 0.03 0.02 0.01 0.01 0.01 0.00 0.00 0.00 0.00 0.00 0.00 0.00 0.00 0.00 0.00 0.00 0.01 0.01 0.01 0.02 0.03 0.03 0.03 0.03 0.03 0.03 0.03 0.04 0.05 0.07 0.15 0.30 0.42 0.47 0.63 0.85 1.02 1.08 1.07 0.97
0.05 0.03 0.02 0.02 0.01 0.00 0.00 0.00 0.00 0.00 0.00 0.00 0.00 0.00 0.00 0.00 0.00 0.00 0.00 0.01 0.01 0.01 0.02 0.04 0.05 0.06 0.05 0.04 0.05 0.07 0.08 0.09 0.12 0.16 0.21 0.29 0.42 0.60 0.77 0.87 0.90 0.86 0.80
0.02 0.02 0.01 0.01 0.00 0.00 0.00 0.00 0.00 0.00 0.00 0.00 0.00 0.00 0.00 0.00 0.00 0.01 0.01 0.00 0.00 0.00 0.01 0.02 0.04 0.05 0.04 0.03 0.03 0.05 0.08 0.11 0.16 0.18 0.26 0.38 0.50 0.65 0.75 0.79 0.78 0.71 0.65